Retour au catalogue

PARUS-T1

ActifRadio amateurSSO
NORAD 62656·PAYLOAD·🇯🇵 Japan

Lancé Jan 14, 2025 depuis Vandenberg Space Force Base

Loading…

Prochains Passages (prochaines 24 heures)

TLE

FraisSource: Space-Track

Époque: Sep 13, 2026, 17:20 UTC

1 62656U 25009AZ  26256.72252188  .00009944  00000-0  29543-3 0  9999
2 62656  97.3895 339.9026 0002046  57.0670 303.0770 15.34969899 92595

Suivez PARUS-T1 en temps réel avec AllMySat

Download on the App Store